Year,Month,Day,Hour,Minute,Value (Times are PST for temperature in C)
2016,06,20,00,00,10.50
2016,06,20,00,01,10.50
2016,06,20,00,02,10.40
2016,06,20,00,03,10.40
2016,06,20,00,04,10.40
2016,06,20,00,05,10.40
2016,06,20,00,06,10.40
2016,06,20,00,07,10.40
2016,06,20,00,08,10.40
2016,06,20,00,09,10.40
2016,06,20,00,10,10.40
2016,06,20,00,11,10.40
2016,06,20,00,12,10.40
2016,06,20,00,13,10.40
2016,06,20,00,14,10.40
2016,06,20,00,15,10.40
2016,06,20,00,16,10.40
2016,06,20,00,17,10.40
2016,06,20,00,18,10.40
2016,06,20,00,19,10.40
2016,06,20,00,20,10.40
2016,06,20,00,21,10.30
2016,06,20,00,22,10.30
2016,06,20,00,23,10.30
2016,06,20,00,24,10.30
2016,06,20,00,25,10.30
2016,06,20,00,26,10.30
2016,06,20,00,27,10.30
2016,06,20,00,28,10.30
2016,06,20,00,29,10.20
2016,06,20,00,30,10.20
2016,06,20,00,31,10.30
2016,06,20,00,32,10.30
2016,06,20,00,33,10.30
2016,06,20,00,34,10.30
2016,06,20,00,35,10.30
2016,06,20,00,36,10.40
2016,06,20,00,37,10.40
2016,06,20,00,38,10.40
2016,06,20,00,39,10.40
2016,06,20,00,40,10.50
2016,06,20,00,41,10.50
2016,06,20,00,42,10.50
2016,06,20,00,43,10.50
2016,06,20,00,44,10.50
2016,06,20,00,45,10.50
2016,06,20,00,46,10.40
2016,06,20,00,47,10.40
2016,06,20,00,48,10.40
2016,06,20,00,49,10.40
2016,06,20,00,50,10.40
2016,06,20,00,51,10.30
2016,06,20,00,52,10.30
2016,06,20,00,53,10.30
2016,06,20,00,54,10.30
2016,06,20,00,55,10.30
2016,06,20,00,56,10.30
2016,06,20,00,57,10.30
2016,06,20,00,58,10.30
2016,06,20,00,59,10.30
2016,06,20,01,00,10.30
2016,06,20,01,01,10.30
2016,06,20,01,02,10.30
2016,06,20,01,03,10.30
2016,06,20,01,04,10.30
2016,06,20,01,05,10.30
2016,06,20,01,06,10.30
2016,06,20,01,07,10.30
2016,06,20,01,08,10.30
2016,06,20,01,09,10.30
2016,06,20,01,10,10.30
2016,06,20,01,11,10.30
2016,06,20,01,12,10.20
2016,06,20,01,13,10.20
2016,06,20,01,14,10.20
2016,06,20,01,15,10.20
2016,06,20,01,16,10.20
2016,06,20,01,17,10.20
2016,06,20,01,18,10.20
2016,06,20,01,19,10.20
2016,06,20,01,20,10.20
2016,06,20,01,21,10.10
2016,06,20,01,22,10.10
2016,06,20,01,23,10.10
2016,06,20,01,24,10.10
2016,06,20,01,25,10.10
2016,06,20,01,26,10.10
2016,06,20,01,27,10.10
2016,06,20,01,28,10.10
2016,06,20,01,29,10.10
2016,06,20,01,30,10.10
2016,06,20,01,31,10.10
2016,06,20,01,32,10.10
2016,06,20,01,33,10.10
2016,06,20,01,34,10.10
2016,06,20,01,35,10.10
2016,06,20,01,36,10.10
2016,06,20,01,37,10.10
2016,06,20,01,38,10.10
2016,06,20,01,39,10.20
2016,06,20,01,40,10.20
2016,06,20,01,41,10.20
2016,06,20,01,42,10.20
2016,06,20,01,43,10.20
2016,06,20,01,44,10.10
2016,06,20,01,45,10.10
2016,06,20,01,46,10.00
2016,06,20,01,47,9.90
2016,06,20,01,48,9.90
2016,06,20,01,49,9.90
2016,06,20,01,50,9.90
2016,06,20,01,51,9.90
2016,06,20,01,52,9.80
2016,06,20,01,53,9.80
2016,06,20,01,54,9.80
2016,06,20,01,55,9.80
2016,06,20,01,56,9.80
2016,06,20,01,57,9.80
2016,06,20,01,58,9.80
2016,06,20,01,59,9.80
2016,06,20,02,00,9.80
2016,06,20,02,01,9.80
2016,06,20,02,02,9.80
2016,06,20,02,03,9.80
2016,06,20,02,04,9.80
2016,06,20,02,05,9.70
2016,06,20,02,06,9.70
2016,06,20,02,07,9.70
2016,06,20,02,08,9.70
2016,06,20,02,09,9.70
2016,06,20,02,10,9.70
2016,06,20,02,11,9.70
2016,06,20,02,12,9.70
2016,06,20,02,13,9.70
2016,06,20,02,14,9.70
2016,06,20,02,15,9.70
2016,06,20,02,16,9.70
2016,06,20,02,17,9.70
2016,06,20,02,18,9.70
2016,06,20,02,19,9.70
2016,06,20,02,20,9.80
2016,06,20,02,21,9.80
2016,06,20,02,22,9.80
2016,06,20,02,23,9.80
2016,06,20,02,24,9.80
2016,06,20,02,25,9.80
2016,06,20,02,26,9.80
2016,06,20,02,27,9.80
2016,06,20,02,28,9.80
2016,06,20,02,29,9.80
2016,06,20,02,30,9.80
2016,06,20,02,31,9.80
2016,06,20,02,32,9.80
2016,06,20,02,33,9.80
2016,06,20,02,34,9.80
2016,06,20,02,35,9.80
2016,06,20,02,36,9.80
2016,06,20,02,37,9.80
2016,06,20,02,38,9.80
2016,06,20,02,39,9.80
2016,06,20,02,40,9.80
2016,06,20,02,41,9.90
2016,06,20,02,42,9.90
2016,06,20,02,43,9.90
2016,06,20,02,44,9.90
2016,06,20,02,45,9.90
2016,06,20,02,46,10.00
2016,06,20,02,47,10.00
2016,06,20,02,48,10.00
2016,06,20,02,49,10.00
2016,06,20,02,50,10.00
2016,06,20,02,51,10.00
2016,06,20,02,52,10.00
2016,06,20,02,53,10.00
2016,06,20,02,54,10.00
2016,06,20,02,55,9.90
2016,06,20,02,56,9.90
2016,06,20,02,57,9.90
2016,06,20,02,58,9.90
2016,06,20,02,59,9.90
2016,06,20,03,00,9.90
2016,06,20,03,01,9.90
2016,06,20,03,02,9.90
2016,06,20,03,03,9.90
2016,06,20,03,04,9.90
2016,06,20,03,05,9.90
2016,06,20,03,06,9.90
2016,06,20,03,07,9.90
2016,06,20,03,08,9.90
2016,06,20,03,09,9.80
2016,06,20,03,10,9.80
2016,06,20,03,11,9.80
2016,06,20,03,12,9.80
2016,06,20,03,13,9.80
2016,06,20,03,14,9.80
2016,06,20,03,15,9.80
2016,06,20,03,16,9.80
2016,06,20,03,17,9.80
2016,06,20,03,18,9.80
2016,06,20,03,19,9.80
2016,06,20,03,20,9.80
2016,06,20,03,21,9.80
2016,06,20,03,22,9.80
2016,06,20,03,23,9.80
2016,06,20,03,24,9.80
2016,06,20,03,25,9.90
2016,06,20,03,26,9.90
2016,06,20,03,27,9.90
2016,06,20,03,28,9.90
2016,06,20,03,29,9.90
2016,06,20,03,30,9.90
2016,06,20,03,31,9.90
2016,06,20,03,32,9.90
2016,06,20,03,33,10.00
2016,06,20,03,34,10.00
2016,06,20,03,35,10.00
2016,06,20,03,36,10.10
2016,06,20,03,37,10.10
2016,06,20,03,38,10.10
2016,06,20,03,39,10.20
2016,06,20,03,40,10.20
2016,06,20,03,41,10.30
2016,06,20,03,42,10.30
2016,06,20,03,43,10.50
2016,06,20,03,44,10.60
2016,06,20,03,45,10.70
2016,06,20,03,46,10.90
2016,06,20,03,47,11.10
2016,06,20,03,48,11.20
2016,06,20,03,49,11.30
2016,06,20,03,50,11.40
2016,06,20,03,51,11.40
2016,06,20,03,52,11.50
2016,06,20,03,53,11.50
2016,06,20,03,54,11.50
2016,06,20,03,55,11.60
2016,06,20,03,56,11.70
2016,06,20,03,57,11.80
2016,06,20,03,58,11.90
2016,06,20,03,59,12.00
2016,06,20,04,00,12.10
2016,06,20,04,01,12.20
2016,06,20,04,02,12.20
2016,06,20,04,03,12.20
2016,06,20,04,04,12.20
2016,06,20,04,05,12.20
2016,06,20,04,06,12.20
2016,06,20,04,07,12.10
2016,06,20,04,08,12.00
2016,06,20,04,09,11.90
2016,06,20,04,10,11.90
2016,06,20,04,11,11.90
2016,06,20,04,12,11.90
2016,06,20,04,13,11.90
2016,06,20,04,14,11.80
2016,06,20,04,15,11.80
2016,06,20,04,16,11.80
2016,06,20,04,17,11.70
2016,06,20,04,18,11.70
2016,06,20,04,19,11.70
2016,06,20,04,20,11.60
2016,06,20,04,21,11.60
2016,06,20,04,22,11.50
2016,06,20,04,23,11.50
2016,06,20,04,24,11.50
2016,06,20,04,25,11.40
2016,06,20,04,26,11.40
2016,06,20,04,27,11.30
2016,06,20,04,28,11.30
2016,06,20,04,29,11.20
2016,06,20,04,30,11.20
2016,06,20,04,31,11.20
2016,06,20,04,32,11.10
2016,06,20,04,33,11.10
2016,06,20,04,34,11.00
2016,06,20,04,35,11.00
2016,06,20,04,36,10.90
2016,06,20,04,37,10.90
2016,06,20,04,38,10.80
2016,06,20,04,39,10.80
2016,06,20,04,40,10.80
2016,06,20,04,41,10.70
2016,06,20,04,42,10.70
2016,06,20,04,43,10.70
2016,06,20,04,44,10.60
2016,06,20,04,45,10.60
2016,06,20,04,46,10.60
2016,06,20,04,47,10.60
2016,06,20,04,48,10.50
2016,06,20,04,49,10.50
2016,06,20,04,50,10.50
2016,06,20,04,51,10.40
2016,06,20,04,52,10.40
2016,06,20,04,53,10.30
2016,06,20,04,54,10.30
2016,06,20,04,55,10.30
2016,06,20,04,56,10.30
2016,06,20,04,57,10.30
2016,06,20,04,58,10.20
2016,06,20,04,59,10.20
2016,06,20,05,00,10.20
2016,06,20,05,01,10.20
2016,06,20,05,02,10.20
2016,06,20,05,03,10.20
2016,06,20,05,04,10.20
2016,06,20,05,05,10.20
2016,06,20,05,06,10.20
2016,06,20,05,07,10.10
2016,06,20,05,08,10.10
2016,06,20,05,09,10.10
2016,06,20,05,10,10.10
2016,06,20,05,11,10.00
2016,06,20,05,12,10.00
2016,06,20,05,13,9.90
2016,06,20,05,14,9.90
2016,06,20,05,15,9.90
2016,06,20,05,16,9.80
2016,06,20,05,17,9.80
2016,06,20,05,18,9.80
2016,06,20,05,19,9.80
2016,06,20,05,20,9.70
2016,06,20,05,21,9.70
2016,06,20,05,22,9.70
2016,06,20,05,23,9.60
2016,06,20,05,24,9.60
2016,06,20,05,25,9.60
2016,06,20,05,26,9.50
2016,06,20,05,27,9.50
2016,06,20,05,28,9.40
2016,06,20,05,29,9.40
2016,06,20,05,30,9.40
2016,06,20,05,31,9.40
2016,06,20,05,32,9.40
2016,06,20,05,33,9.40
2016,06,20,05,34,9.40
2016,06,20,05,35,9.30
2016,06,20,05,36,9.30
2016,06,20,05,37,9.30
2016,06,20,05,38,9.30
2016,06,20,05,39,9.30
2016,06,20,05,40,9.30
2016,06,20,05,41,9.30
2016,06,20,05,42,9.30
2016,06,20,05,43,9.30
2016,06,20,05,44,9.30
2016,06,20,05,45,9.30
2016,06,20,05,46,9.30
2016,06,20,05,47,9.30
2016,06,20,05,48,9.30
2016,06,20,05,49,9.30
2016,06,20,05,50,9.30
2016,06,20,05,51,9.30
2016,06,20,05,52,9.30
2016,06,20,05,53,9.30
2016,06,20,05,54,9.30
2016,06,20,05,55,9.30
2016,06,20,05,56,9.40
2016,06,20,05,57,9.40
2016,06,20,05,58,9.40
2016,06,20,05,59,9.40
2016,06,20,06,00,9.40
2016,06,20,06,01,9.40
2016,06,20,06,02,9.40
2016,06,20,06,03,9.40
2016,06,20,06,04,9.40
2016,06,20,06,05,9.40
2016,06,20,06,06,9.40
2016,06,20,06,07,9.40
2016,06,20,06,08,9.40
2016,06,20,06,09,9.40
2016,06,20,06,10,9.40
2016,06,20,06,11,9.40
2016,06,20,06,12,9.40
2016,06,20,06,13,9.40
2016,06,20,06,14,9.40
2016,06,20,06,15,9.40
2016,06,20,06,16,9.40
2016,06,20,06,17,9.40
2016,06,20,06,18,9.40
2016,06,20,06,19,9.40
2016,06,20,06,20,9.40
2016,06,20,06,21,9.40
2016,06,20,06,22,9.40
2016,06,20,06,23,9.40
2016,06,20,06,24,9.50
2016,06,20,06,25,9.50
2016,06,20,06,26,9.50
2016,06,20,06,27,9.50
2016,06,20,06,28,9.50
2016,06,20,06,29,9.50
2016,06,20,06,30,9.50
2016,06,20,06,31,9.50
2016,06,20,06,32,9.50
2016,06,20,06,33,9.50
2016,06,20,06,34,9.50
2016,06,20,06,35,9.50
2016,06,20,06,36,9.40
2016,06,20,06,37,9.40
2016,06,20,06,38,9.40
2016,06,20,06,39,9.40
2016,06,20,06,40,9.40
2016,06,20,06,41,9.40
2016,06,20,06,42,9.40
2016,06,20,06,43,9.40
2016,06,20,06,44,9.40
2016,06,20,06,45,9.40
2016,06,20,06,46,9.40
2016,06,20,06,47,9.40
2016,06,20,06,48,9.50
2016,06,20,06,49,9.50
2016,06,20,06,50,9.40
2016,06,20,06,51,9.40
2016,06,20,06,52,9.40
2016,06,20,06,53,9.40
2016,06,20,06,54,9.40
2016,06,20,06,55,9.40
2016,06,20,06,56,9.40
2016,06,20,06,57,9.40
2016,06,20,06,58,9.40
2016,06,20,06,59,9.40
2016,06,20,07,00,9.40
2016,06,20,07,01,9.40
2016,06,20,07,02,9.40
2016,06,20,07,03,9.40
2016,06,20,07,04,9.40
2016,06,20,07,05,9.40
2016,06,20,07,06,9.30
2016,06,20,07,07,9.30
2016,06,20,07,08,9.30
2016,06,20,07,09,9.30
2016,06,20,07,10,9.30
2016,06,20,07,11,9.30
2016,06,20,07,12,9.30
2016,06,20,07,13,9.40
2016,06,20,07,14,9.40
2016,06,20,07,15,9.40
2016,06,20,07,16,9.40
2016,06,20,07,17,9.40
2016,06,20,07,18,9.40
2016,06,20,07,19,9.40
2016,06,20,07,20,9.50
2016,06,20,07,21,9.50
2016,06,20,07,22,9.50
2016,06,20,07,23,9.50
2016,06,20,07,24,9.60
2016,06,20,07,25,9.60
2016,06,20,07,26,9.60
2016,06,20,07,27,9.60
2016,06,20,07,28,9.70
2016,06,20,07,29,9.70
2016,06,20,07,30,9.80
2016,06,20,07,31,9.80
2016,06,20,07,32,9.80
2016,06,20,07,33,9.80
2016,06,20,07,34,9.80
2016,06,20,07,35,9.80
2016,06,20,07,36,9.80
2016,06,20,07,37,9.90
2016,06,20,07,38,9.90
2016,06,20,07,39,9.90
2016,06,20,07,40,9.90
2016,06,20,07,41,9.90
2016,06,20,07,42,9.90
2016,06,20,07,43,9.90
2016,06,20,07,44,10.00
2016,06,20,07,45,10.00
2016,06,20,07,46,10.00
2016,06,20,07,47,10.10
2016,06,20,07,48,10.10
2016,06,20,07,49,10.10
2016,06,20,07,50,10.10
2016,06,20,07,51,10.20
2016,06,20,07,52,10.20
2016,06,20,07,53,10.20
2016,06,20,07,54,10.20
2016,06,20,07,55,10.30
2016,06,20,07,56,10.30
2016,06,20,07,57,10.40
2016,06,20,07,58,10.40
2016,06,20,07,59,10.50
2016,06,20,08,00,10.50
2016,06,20,08,01,10.60
2016,06,20,08,02,10.60
2016,06,20,08,03,10.60
2016,06,20,08,04,10.70
2016,06,20,08,05,10.70
2016,06,20,08,06,10.80
2016,06,20,08,07,10.80
2016,06,20,08,08,10.90
2016,06,20,08,09,10.90
2016,06,20,08,10,10.90
2016,06,20,08,11,10.90
2016,06,20,08,12,11.00
2016,06,20,08,13,11.00
2016,06,20,08,14,11.10
2016,06,20,08,15,11.10
2016,06,20,08,16,11.10
2016,06,20,08,17,11.20
2016,06,20,08,18,11.20
2016,06,20,08,19,11.20
2016,06,20,08,20,11.20
2016,06,20,08,21,11.20
2016,06,20,08,22,11.20
2016,06,20,08,23,11.30
2016,06,20,08,24,11.30
2016,06,20,08,25,11.30
2016,06,20,08,26,11.30
2016,06,20,08,27,11.30
2016,06,20,08,28,11.30
2016,06,20,08,29,11.40
2016,06,20,08,30,11.40
2016,06,20,08,31,11.40
2016,06,20,08,32,11.40
2016,06,20,08,33,11.50
2016,06,20,08,34,11.50
2016,06,20,08,35,11.50
2016,06,20,08,36,11.60
2016,06,20,08,37,11.60
2016,06,20,08,38,11.60
2016,06,20,08,39,11.60
2016,06,20,08,40,11.70
2016,06,20,08,41,11.70
2016,06,20,08,42,11.70
2016,06,20,08,43,11.70
2016,06,20,08,44,11.70
2016,06,20,08,45,11.80
2016,06,20,08,46,11.80
2016,06,20,08,47,11.80
2016,06,20,08,48,11.80
2016,06,20,08,49,11.90
2016,06,20,08,50,11.90
2016,06,20,08,51,12.00
2016,06,20,08,52,12.00
2016,06,20,08,53,12.10
2016,06,20,08,54,12.10
2016,06,20,08,55,12.10
2016,06,20,08,56,12.20
2016,06,20,08,57,12.20
2016,06,20,08,58,12.20
2016,06,20,08,59,12.30
2016,06,20,09,00,12.30
2016,06,20,09,01,12.30
2016,06,20,09,02,12.40
2016,06,20,09,03,12.50
2016,06,20,09,04,12.50
2016,06,20,09,05,12.60
2016,06,20,09,06,12.70
2016,06,20,09,07,12.70
2016,06,20,09,08,12.80
2016,06,20,09,09,12.80
2016,06,20,09,10,12.90
2016,06,20,09,11,12.90
2016,06,20,09,12,13.00
2016,06,20,09,13,13.00
2016,06,20,09,14,13.10
2016,06,20,09,15,13.10
2016,06,20,09,16,13.10
2016,06,20,09,17,13.20
2016,06,20,09,18,13.20
2016,06,20,09,19,13.30
2016,06,20,09,20,13.30
2016,06,20,09,21,13.40
2016,06,20,09,22,13.40
2016,06,20,09,23,13.50
2016,06,20,09,24,13.60
2016,06,20,09,25,13.60
2016,06,20,09,26,13.70
2016,06,20,09,27,13.80
2016,06,20,09,28,13.80
2016,06,20,09,29,13.90
2016,06,20,09,30,13.90
2016,06,20,09,31,14.00
2016,06,20,09,32,14.00
2016,06,20,09,33,14.10
2016,06,20,09,34,14.10
2016,06,20,09,35,14.10
2016,06,20,09,36,14.20
2016,06,20,09,37,14.20
2016,06,20,09,38,14.20
2016,06,20,09,39,14.30
2016,06,20,09,40,14.30
2016,06,20,09,41,14.30
2016,06,20,09,42,14.30
2016,06,20,09,43,14.40
2016,06,20,09,44,14.40
2016,06,20,09,45,14.40
2016,06,20,09,46,14.50
2016,06,20,09,47,14.60
2016,06,20,09,48,14.60
2016,06,20,09,49,14.70
2016,06,20,09,50,14.80
2016,06,20,09,51,14.90
2016,06,20,09,52,15.00
2016,06,20,09,53,15.10
2016,06,20,09,54,15.10
2016,06,20,09,55,15.10
2016,06,20,09,56,15.20
2016,06,20,09,57,15.20
2016,06,20,09,58,15.30
2016,06,20,09,59,15.30
2016,06,20,10,00,15.40
2016,06,20,10,01,15.40
2016,06,20,10,02,15.40
2016,06,20,10,03,15.60
2016,06,20,10,04,15.60
2016,06,20,10,05,15.70
2016,06,20,10,06,15.70
2016,06,20,10,07,15.70
2016,06,20,10,08,15.80
2016,06,20,10,09,15.80
2016,06,20,10,10,15.90
2016,06,20,10,11,16.00
2016,06,20,10,12,16.10
2016,06,20,10,13,16.10
2016,06,20,10,14,16.20
2016,06,20,10,15,16.20
2016,06,20,10,16,16.20
2016,06,20,10,17,16.20
2016,06,20,10,18,16.10
2016,06,20,10,19,16.10
2016,06,20,10,20,16.10
2016,06,20,10,21,16.10
2016,06,20,10,22,16.00
2016,06,20,10,23,16.00
2016,06,20,10,24,16.00
2016,06,20,10,25,15.90
2016,06,20,10,26,15.90
2016,06,20,10,27,15.90
2016,06,20,10,28,15.90
2016,06,20,10,29,15.90
2016,06,20,10,30,15.90
2016,06,20,10,31,15.90
2016,06,20,10,32,15.90
2016,06,20,10,33,15.90
2016,06,20,10,34,15.90
2016,06,20,10,35,15.90
2016,06,20,10,36,15.90
2016,06,20,10,37,15.90
2016,06,20,10,38,15.90
2016,06,20,10,39,15.90
2016,06,20,10,40,15.90
2016,06,20,10,41,15.90
2016,06,20,10,42,15.90
2016,06,20,10,43,15.90
2016,06,20,10,44,15.80
2016,06,20,10,45,15.80
2016,06,20,10,46,15.90
2016,06,20,10,47,15.90
2016,06,20,10,48,15.90
2016,06,20,10,49,15.90
2016,06,20,10,50,15.90
2016,06,20,10,51,16.00
2016,06,20,10,52,16.00
2016,06,20,10,53,16.10
2016,06,20,10,54,16.20
2016,06,20,10,55,16.20
2016,06,20,10,56,16.20
2016,06,20,10,57,16.20
2016,06,20,10,58,16.30
2016,06,20,10,59,16.40
2016,06,20,11,00,16.40
2016,06,20,11,01,16.40
2016,06,20,11,02,16.50
2016,06,20,11,03,16.50
2016,06,20,11,04,16.60
2016,06,20,11,05,16.60
2016,06,20,11,06,16.60
2016,06,20,11,07,16.70
2016,06,20,11,08,16.70
2016,06,20,11,09,16.70
2016,06,20,11,10,16.80
2016,06,20,11,11,16.80
2016,06,20,11,12,16.80
2016,06,20,11,13,16.90
2016,06,20,11,14,16.90
2016,06,20,11,15,16.90
2016,06,20,11,16,16.90
2016,06,20,11,17,17.00
2016,06,20,11,18,17.00
2016,06,20,11,19,17.00
2016,06,20,11,20,17.10
2016,06,20,11,21,17.10
2016,06,20,11,22,17.10
2016,06,20,11,23,17.20
2016,06,20,11,24,17.20
2016,06,20,11,25,17.20
2016,06,20,11,26,17.20
2016,06,20,11,27,17.20
2016,06,20,11,28,17.20
2016,06,20,11,29,17.30
2016,06,20,11,30,17.30
2016,06,20,11,31,17.30
2016,06,20,11,32,17.40
2016,06,20,11,33,17.40
2016,06,20,11,34,17.50
2016,06,20,11,35,17.60
2016,06,20,11,36,17.70
2016,06,20,11,37,17.70
2016,06,20,11,38,17.80
2016,06,20,11,39,17.80
2016,06,20,11,40,17.90
2016,06,20,11,41,17.90
2016,06,20,11,42,18.00
2016,06,20,11,43,18.00
2016,06,20,11,44,18.00
2016,06,20,11,45,18.10
2016,06,20,11,46,18.10
2016,06,20,11,47,18.20
2016,06,20,11,48,18.20
2016,06,20,11,49,18.30
2016,06,20,11,50,18.30
2016,06,20,11,51,18.30
2016,06,20,11,52,18.30
2016,06,20,11,53,18.30
2016,06,20,11,54,18.30
2016,06,20,11,55,18.30
2016,06,20,11,56,18.40
2016,06,20,11,57,18.40
2016,06,20,11,58,18.40
2016,06,20,11,59,18.50
2016,06,20,12,00,18.50
2016,06,20,12,01,18.40
2016,06,20,12,02,18.40
2016,06,20,12,03,18.40
2016,06,20,12,04,18.30
2016,06,20,12,05,18.30
2016,06,20,12,06,18.30
2016,06,20,12,07,18.30
2016,06,20,12,08,18.40
2016,06,20,12,09,18.40
2016,06,20,12,10,18.40
2016,06,20,12,11,18.40
2016,06,20,12,12,18.40
2016,06,20,12,13,18.40
2016,06,20,12,14,18.40
2016,06,20,12,15,18.50
2016,06,20,12,16,18.50
2016,06,20,12,17,18.60
2016,06,20,12,18,18.60
2016,06,20,12,19,18.60
2016,06,20,12,20,18.60
2016,06,20,12,21,18.60
2016,06,20,12,22,18.70
2016,06,20,12,23,18.70
2016,06,20,12,24,18.70
2016,06,20,12,25,18.70
2016,06,20,12,26,18.70
2016,06,20,12,27,18.80
2016,06,20,12,28,18.80
2016,06,20,12,29,18.80
2016,06,20,12,30,18.80
2016,06,20,12,31,18.80
2016,06,20,12,32,18.80
2016,06,20,12,33,18.80
2016,06,20,12,34,18.90
2016,06,20,12,35,18.90
2016,06,20,12,36,18.90
2016,06,20,12,37,18.90
2016,06,20,12,38,18.90
2016,06,20,12,39,18.90
2016,06,20,12,40,18.90
2016,06,20,12,41,19.00
2016,06,20,12,42,19.00
2016,06,20,12,43,19.00
2016,06,20,12,44,19.00
2016,06,20,12,45,19.10
2016,06,20,12,46,19.10
2016,06,20,12,47,19.10
2016,06,20,12,48,19.10
2016,06,20,12,49,19.10
2016,06,20,12,50,19.10
2016,06,20,12,51,19.10
2016,06,20,12,52,19.20
2016,06,20,12,53,19.20
2016,06,20,12,54,19.20
2016,06,20,12,55,19.20
2016,06,20,12,56,19.20
2016,06,20,12,57,19.30
2016,06,20,12,58,19.30
2016,06,20,12,59,19.30
2016,06,20,13,00,19.30
2016,06,20,13,01,19.30
2016,06,20,13,02,19.30
2016,06,20,13,03,19.30
2016,06,20,13,04,19.30
2016,06,20,13,05,19.30
2016,06,20,13,06,19.30
2016,06,20,13,07,19.30
2016,06,20,13,08,19.40
2016,06,20,13,09,19.50
2016,06,20,13,10,19.50
2016,06,20,13,11,19.60
2016,06,20,13,12,19.70
2016,06,20,13,13,19.70
2016,06,20,13,14,19.70
2016,06,20,13,15,19.80
2016,06,20,13,16,19.80
2016,06,20,13,17,19.90
2016,06,20,13,18,20.00
2016,06,20,13,19,20.10
2016,06,20,13,20,20.20
2016,06,20,13,21,20.30
2016,06,20,13,22,20.40
2016,06,20,13,23,20.50
2016,06,20,13,24,20.50
2016,06,20,13,25,20.60
2016,06,20,13,26,20.70
2016,06,20,13,27,20.80
2016,06,20,13,28,20.90
2016,06,20,13,29,21.00
2016,06,20,13,30,21.10
2016,06,20,13,31,21.20
2016,06,20,13,32,21.20
2016,06,20,13,33,21.20
2016,06,20,13,34,21.20
2016,06,20,13,35,21.20
2016,06,20,13,36,21.10
2016,06,20,13,37,21.10
2016,06,20,13,38,21.20
2016,06,20,13,39,21.20
2016,06,20,13,40,21.20
2016,06,20,13,41,21.20
2016,06,20,13,42,21.20
2016,06,20,13,43,21.20
2016,06,20,13,44,21.20
2016,06,20,13,45,21.20
2016,06,20,13,46,21.20
2016,06,20,13,47,21.20
2016,06,20,13,48,21.10
2016,06,20,13,49,21.10
2016,06,20,13,50,21.20
2016,06,20,13,51,21.20
2016,06,20,13,52,21.30
2016,06,20,13,53,21.30
2016,06,20,13,54,21.40
2016,06,20,13,55,21.40
2016,06,20,13,56,21.50
2016,06,20,13,57,21.60
2016,06,20,13,58,21.60
2016,06,20,13,59,21.70
2016,06,20,14,00,21.80
2016,06,20,14,01,21.80
2016,06,20,14,02,21.80
2016,06,20,14,03,21.70
2016,06,20,14,04,21.70
2016,06,20,14,05,21.60
2016,06,20,14,06,21.70
2016,06,20,14,07,21.60
2016,06,20,14,08,21.60
2016,06,20,14,09,21.50
2016,06,20,14,10,21.50
2016,06,20,14,11,21.40
2016,06,20,14,12,21.40
2016,06,20,14,13,21.30
2016,06,20,14,14,21.30
2016,06,20,14,15,21.30
2016,06,20,14,16,21.30
2016,06,20,14,17,21.30
2016,06,20,14,18,21.30
2016,06,20,14,19,21.40
2016,06,20,14,20,21.30
2016,06,20,14,21,21.40
2016,06,20,14,22,21.40
2016,06,20,14,23,21.30
2016,06,20,14,24,21.30
2016,06,20,14,25,21.20
2016,06,20,14,26,21.20
2016,06,20,14,27,21.20
2016,06,20,14,28,21.20
2016,06,20,14,29,21.10
2016,06,20,14,30,21.20
2016,06,20,14,31,21.20
2016,06,20,14,32,21.20
2016,06,20,14,33,21.30
2016,06,20,14,34,21.40
2016,06,20,14,35,21.40
2016,06,20,14,36,21.50
2016,06,20,14,37,21.50
2016,06,20,14,38,21.60
2016,06,20,14,39,21.80
2016,06,20,14,40,21.90
2016,06,20,14,41,22.10
2016,06,20,14,42,22.20
2016,06,20,14,43,22.30
2016,06,20,14,44,22.40
2016,06,20,14,45,22.40
2016,06,20,14,46,22.50
2016,06,20,14,47,22.60
2016,06,20,14,48,22.60
2016,06,20,14,49,22.70
2016,06,20,14,50,22.70
2016,06,20,14,51,22.70
2016,06,20,14,52,22.70
2016,06,20,14,53,22.70
2016,06,20,14,54,22.70
2016,06,20,14,55,22.70
2016,06,20,14,56,22.70
2016,06,20,14,57,22.80
2016,06,20,14,58,22.80
2016,06,20,14,59,22.80
2016,06,20,15,00,22.80
2016,06,20,15,01,22.80
2016,06,20,15,02,22.80
2016,06,20,15,03,22.70
2016,06,20,15,04,22.70
2016,06,20,15,05,22.70
2016,06,20,15,06,22.70
2016,06,20,15,07,22.70
2016,06,20,15,08,22.70
2016,06,20,15,09,22.80
2016,06,20,15,10,22.80
2016,06,20,15,11,22.80
2016,06,20,15,12,22.80
2016,06,20,15,13,22.80
2016,06,20,15,14,22.80
2016,06,20,15,15,22.90
2016,06,20,15,16,22.90
2016,06,20,15,17,22.90
2016,06,20,15,18,22.90
2016,06,20,15,19,22.90
2016,06,20,15,20,23.00
2016,06,20,15,21,23.00
2016,06,20,15,22,23.00
2016,06,20,15,23,23.10
2016,06,20,15,24,23.10
2016,06,20,15,25,23.10
2016,06,20,15,26,23.10
2016,06,20,15,27,23.10
2016,06,20,15,28,23.20
2016,06,20,15,29,23.20
2016,06,20,15,30,23.20
2016,06,20,15,31,23.20
2016,06,20,15,32,23.20
2016,06,20,15,33,23.20
2016,06,20,15,34,23.10
2016,06,20,15,35,23.10
2016,06,20,15,36,23.10
2016,06,20,15,37,23.10
2016,06,20,15,38,23.10
2016,06,20,15,39,23.10
2016,06,20,15,40,23.10
2016,06,20,15,41,23.20
2016,06,20,15,42,23.20
2016,06,20,15,43,23.20
2016,06,20,15,44,23.20
2016,06,20,15,45,23.20
2016,06,20,15,46,23.20
2016,06,20,15,47,23.20
2016,06,20,15,48,23.10
2016,06,20,15,49,23.10
2016,06,20,15,50,23.00
2016,06,20,15,51,23.00
2016,06,20,15,52,23.00
2016,06,20,15,53,23.10
2016,06,20,15,54,23.10
2016,06,20,15,55,23.10
2016,06,20,15,56,23.20
2016,06,20,15,57,23.20
2016,06,20,15,58,23.20
2016,06,20,15,59,23.20
2016,06,20,16,00,23.20
2016,06,20,16,01,23.10
2016,06,20,16,02,23.10
2016,06,20,16,03,23.10
2016,06,20,16,04,23.10
2016,06,20,16,05,23.10
2016,06,20,16,06,23.10
2016,06,20,16,07,23.10
2016,06,20,16,08,23.00
2016,06,20,16,09,22.90
2016,06,20,16,10,22.90
2016,06,20,16,11,22.80
2016,06,20,16,12,22.80
2016,06,20,16,13,22.80
2016,06,20,16,14,22.70
2016,06,20,16,15,22.70
2016,06,20,16,16,22.70
2016,06,20,16,17,22.70
2016,06,20,16,18,22.70
2016,06,20,16,19,22.70
2016,06,20,16,20,22.70
2016,06,20,16,21,22.70
2016,06,20,16,22,22.70
2016,06,20,16,23,22.60
2016,06,20,16,24,22.60
2016,06,20,16,25,22.60
2016,06,20,16,26,22.60
2016,06,20,16,27,22.60
2016,06,20,16,28,22.60
2016,06,20,16,29,22.60
2016,06,20,16,30,22.60
2016,06,20,16,31,22.60
2016,06,20,16,32,22.60
2016,06,20,16,33,22.60
2016,06,20,16,34,22.60
2016,06,20,16,35,22.60
2016,06,20,16,36,22.60
2016,06,20,16,37,22.60
2016,06,20,16,38,22.60
2016,06,20,16,39,22.60
2016,06,20,16,40,22.60
2016,06,20,16,41,22.50
2016,06,20,16,42,22.40
2016,06,20,16,43,22.40
2016,06,20,16,44,22.40
2016,06,20,16,45,22.40
2016,06,20,16,46,22.30
2016,06,20,16,47,22.30
2016,06,20,16,48,22.30
2016,06,20,16,49,22.30
2016,06,20,16,50,22.30
2016,06,20,16,51,22.30
2016,06,20,16,52,22.30
2016,06,20,16,53,22.40
2016,06,20,16,54,22.40
2016,06,20,16,55,22.40
2016,06,20,16,56,22.40
2016,06,20,16,57,22.40
2016,06,20,16,58,22.40
2016,06,20,16,59,22.40
2016,06,20,17,00,22.40
2016,06,20,17,01,22.40
2016,06,20,17,02,22.30
2016,06,20,17,03,22.30
2016,06,20,17,04,22.30
2016,06,20,17,05,22.30
2016,06,20,17,06,22.30
2016,06,20,17,07,22.30
2016,06,20,17,08,22.30
2016,06,20,17,09,22.30
2016,06,20,17,10,22.30
2016,06,20,17,11,22.30
2016,06,20,17,12,22.30
2016,06,20,17,13,22.30
2016,06,20,17,14,22.30
2016,06,20,17,15,22.20
2016,06,20,17,16,22.20
2016,06,20,17,17,22.20
2016,06,20,17,18,22.10
2016,06,20,17,19,22.10
2016,06,20,17,20,22.10
2016,06,20,17,21,22.10
2016,06,20,17,22,22.10
2016,06,20,17,23,22.10
2016,06,20,17,24,22.10
2016,06,20,17,25,22.00
2016,06,20,17,26,22.00
2016,06,20,17,27,22.10
2016,06,20,17,28,22.10
2016,06,20,17,29,22.00
2016,06,20,17,30,22.00